Location: Olympia
(47.0371°N, 122.8993°W)
Time: 04:12:21
(UTC-08:00)

ARIANE 6 FM1 Upper Stage - Pass Details

Date: 17 December 2025
Orbit: 522 x 610 km, 62.0° (Epoch: 13 January)

Event Time Altitude Azimuth Distance (km) Brightness Sun altitude
Exits shadow 06:33:40 - 234° (SW) 2,329 5.5 -12.7°
Reaches altitude 10° 06:35:02 10° 237° (WSW) 1,788 4.9 -12.5°
Maximum altitude 06:38:58 55° 316° (NW) 641 2.6 -11.9°
Drops below altitude 10° 06:42:52 10° 35° (NE) 1,770 5.4 -11.3°
Sets 06:45:06 0° 40° (NE) 2,659 6.4 -10.9°
